Location: Masiello
(41.0833°N, 14.9833°E)
Time: 00:10:07
(UTC+00:00)

Daily predictions for brighter satellites

Satellite Brightness Start Highest point End
(mag) Time Altitude Azimuth Time Altitude Azimuth Time Altitude Azimuth
Cosmos 2278 Rocket 4.1 02:31:43 25° ENE 02:31:43 25° ENE 02:34:27 10° NE
USA 215 4.3 02:25:24 10° E 02:30:30 37° NE 02:30:30 37° NE
Cosmos 1833 Rocket 3.8 02:52:14 40° E 02:52:14 40° E 02:56:20 10° SE
Cosmos 1763 Rocket 4.2 03:12:45 52° ESE 03:12:45 52° ESE 03:17:09 10° SSE
COSMO-SKYMED 1 4.4 03:30:09 10° SE 03:33:54 29° ENE 03:37:26 11° N
Cosmos 1464 Rocket 4.2 03:28:10 10° N 03:34:30 72° E 03:40:44 10° SSE
YAOGAN 6 4.2 03:31:23 10° NNE 03:34:47 34° E 03:38:09 10° SSE
CENTAUR R/B 4.0 03:30:16 10° S 03:35:13 33° ESE 03:40:57 10° NE
H-2A R/B 3.7 03:43:32 10° NNE 03:47:05 45° E 03:50:39 10° S
COSMOS 2406 3.1 03:52:21 54° NW 03:53:34 70° WSW 03:59:10 10° SSE
Cosmos 2344 3.4 03:46:18 10° SW 03:53:57 88° NW 04:01:36 10° NE
Meteor 2-2 Rocket 4.2 03:53:01 50° NW 03:54:10 60° W 03:59:47 10° S
Cosmos 2082 Rocket 2.3 03:52:50 27° NNW 03:56:01 74° ENE 04:01:36 10° SSE
Cosmos 1850 Rocket 3.9 03:54:57 33° SW 03:57:20 71° WNW 04:02:42 10° NNE
Tiangong 3.5 03:59:52 17° SSE 03:59:52 17° SSE 04:01:00 10° SSE
COSMOS 2455 2.8 03:57:05 48° WNW 03:58:29 61° WSW 04:04:22 10° SSE
Cosmos 1891 Rocket 4.5 03:53:07 10° NNW 03:59:29 63° W 04:05:51 10° S
Cosmos 1842 Rocket 3.4 03:58:54 57° NNW 03:59:47 79° W 04:04:13 10° S
SL-24 R/B 4.3 03:55:56 10° N 04:01:02 61° WNW 04:02:33 40° SW
Cosmos 468 Rocket 4.2 04:07:17 46° W 04:07:41 46° WSW 04:12:44 10° S
MOS 1-B Rocket 4.1 04:01:23 10° SSE 04:08:20 86° WSW 04:14:22 10° NNW
Cosmos 2278 Rocket 2.8 04:13:39 34° NW 04:13:39 34° NW 04:18:32 10° N
USA 215 3.2 04:07:28 10° SE 04:14:00 76° SW 04:17:51 27° NW
Cosmos 2034 Rocket 3.9 04:09:46 10° N 04:15:58 78° W 04:22:13 10° S
Cosmos 1900 4.3 04:13:44 27° NNW 04:16:28 85° ENE 04:21:30 10° SSE
Cosmos 1943 Rocket 2.7 04:11:59 10° S 04:17:33 62° ESE 04:23:09 10° NNE
CZ-2C R/B 2.7 04:12:44 10° SSE 04:18:19 88° ENE 04:23:49 10° NNW
Cosmos 1782 4.2 04:15:08 10° N 04:18:51 37° ENE 04:22:32 10° SSE
SKYMED 2 3.4 04:17:27 10° S 04:21:48 83° W 04:26:01 11° NNW
BREEZE M DEB (TANK) 4.0 04:21:18 30° NW 04:22:01 32° NNW 04:24:44 10° NE
Cosmos 1816 Rocket 4.4 04:15:52 10° SSW 04:22:01 72° W 04:28:17 10° N
Cosmos 540 Rocket 3.6 04:25:26 25° NW 04:28:12 51° WSW 04:33:09 10° S
Cosmos 2221 3.4 04:32:05 28° W 04:32:05 28° W 04:35:27 10° SSW
Cosmos 1933 3.2 04:28:20 10° N 04:32:22 89° WSW 04:36:22 10° S
ADEOS 3.8 04:27:18 10° NNE 04:32:33 74° ESE 04:37:45 10° S
OAO 3 Rocket 4.1 04:31:21 20° WSW 04:34:22 41° S 04:38:59 10° ESE
Cosmos 1833 Rocket 3.7 04:34:00 24° W 04:34:28 24° WSW 04:38:52 10° SSW
Tsikada Rocket 3.9 04:28:53 10° SSW 04:35:01 73° W 04:41:16 10° N
BREEZE-M R/B 3.9 04:35:31 18° SW 04:35:32 18° SW 04:37:49 10° S
SL-8 R/B 4.5 04:35:05 26° NW 04:37:01 36° N 04:41:28 10° ENE
CZ-4B R/B 4.1 04:33:40 10° N 04:37:57 56° WNW 04:42:19 10° SSW
Meteor 1-31 Rocket 2.9 04:35:42 10° N 04:39:28 51° WNW 04:43:13 10° SSW
Iridium 2 4.4 04:36:03 10° SSE 04:39:45 56° E 04:43:29 10° NNE
Cosmos 2151 3.0 04:36:31 10° SSW 04:40:42 56° W 04:44:57 10° N
Cosmos 1634 Rocket 4.1 04:37:48 10° N 04:44:09 82° E 04:50:24 10° S
CZ-4C R/B 2.7 04:45:14 10° S 04:48:25 65° WSW 04:51:34 10° NNW
Meteor 2-13 Rocket 4.4 04:43:21 10° S 04:49:29 87° W 04:55:38 10° N
Hubble Space Telescope 3.3 04:47:33 10° SSW 04:49:42 14° S 04:51:52 10° SE
Cosmos 1812 3.5 04:47:53 10° N 04:51:41 52° E 04:55:25 10° SSE
Cosmos 841 Rocket 3.9 04:48:36 13° NW 04:52:43 39° WSW 04:57:29 10° S
H-2A R/B 2.9 04:50:40 10° SSE 04:54:41 51° ENE 04:58:50 10° N
Cosmos 2098 Rocket 2.7 04:53:11 10° S 04:56:23 75° E 05:00:18 10° N
Cosmos 1939 Rocket 3.8 04:54:50 10° NNE 04:58:44 52° E 05:02:32 10° S
Cosmos 1766 Rocket 4.1 04:55:03 10° S 04:59:21 63° E 05:03:39 10° NNE
Envisat 3.6 04:55:18 10° N 04:59:46 32° WNW 05:04:14 10° SW
SMAP 4.3 04:55:21 10° NNE 04:59:51 46° E 05:04:19 10° S
BREEZE-M DEB (TANK) 4.2 04:42:19 14° WNW 04:59:56 81° SW 05:05:06 10° SE
FALCON 9 DEB 2.5 04:58:37 10° SW 05:01:32 82° NNW 05:04:25 10° NE
DMSP B5D2-2 4.0 05:02:18 10° S 05:07:32 81° WSW 05:12:47 10° NNW
YAOGAN 6 4.2 05:05:43 10° NNW 05:07:54 15° WNW 05:10:03 10° WSW
Cosmos 1570 Rocket 4.1 05:02:52 10° NNW 05:08:00 56° WSW 05:13:06 10° S
Cosmos 2369 Rocket 2.5 05:03:12 10° SSW 05:08:46 72° ESE 05:14:21 10° NNE
COSMO-SKYMED 1 3.7 05:06:31 10° SSW 05:10:02 24° W 05:13:35 10° NW
FALCON 9 DEB 3.6 05:07:03 10° SW 05:10:23 63° SE 05:13:44 10° ENE
Aureole 1 Rocket 2.7 05:09:36 10° SW 05:12:37 35° WNW 05:15:24 10° N
FALCON 9 DEB 3.2 05:13:15 10° WSW 05:15:58 39° NNW 05:18:41 10° NE
Cosmos 1867 3.6 05:11:53 10° NNW 05:17:23 85° WSW 05:22:49 10° SSE
Cosmos 1241 Rocket 4.5 05:11:37 10° NNW 05:17:51 90° ENE 05:24:04 10° SSE
Cosmos 2084 Rocket 4.2 05:14:36 10° WSW 05:17:54 26° NW 05:21:12 10° NNE
NOSS 3-2 (A) 3.9 05:13:47 10° WSW 05:18:59 38° NW 05:24:55 10° NNE
APEX 2.6 05:17:09 10° NW 05:19:52 55° WSW 05:22:51 10° SSE
Cosmos 921 Rocket 3.1 05:15:49 10° NNW 05:20:12 86° ENE 05:24:38 10° SSE
H-2A R/B 4.5 05:19:20 10° NW 05:20:47 12° WNW 05:22:15 10° W
FALCON 9 DEB 3.6 05:19:18 10° W 05:21:53 30° NNW 05:24:30 10° NE
Cosmos 1328 Rocket 3.7 05:17:35 10° N 05:22:01 78° E 05:26:23 10° S
NOSS 3-2 (C) 3.3 05:16:44 10° SW 05:22:09 60° NW 05:28:25 10° NNE
H-2A R/B 3.6 05:18:09 10° NNE 05:22:44 38° E 05:27:17 10° SSE
FALCON 9 DEB 2.9 05:22:11 10° WSW 05:25:01 49° NW 05:27:50 10° NE
CENTAUR R/B 2.8 05:19:58 10° WSW 05:25:34 45° NW 05:32:16 10° NNE
NOAA 12 4.1 05:20:28 10° N 05:25:43 68° WNW 05:30:55 10° SSW
Cosmos 968 Rocket 3.7 05:20:54 10° SW 05:25:54 49° WNW 05:30:54 10° N
Cosmos 1151 Rocket 3.1 05:23:54 10° NNW 05:28:14 61° W 05:32:32 10° S
CZ-4B R/B 3.1 05:27:56 10° N 05:31:16 36° WNW 05:34:33 10° SW
Gbstr 26 Del rocket 2.9 05:28:45 10° NW 05:32:42 84° SW 05:37:21 10° SE
Meteor 2-6 Rocket 4.1 05:27:42 10° NNW 05:33:09 76° W 05:38:31 10° S
